Weather History for Nausori, Fiji

Change the Weather History Date:

Monday, January 7, 2013

  Actual Average Record
Temperature  
Mean Temperature 78 °F -  
Max Temperature 82 °F - - ()
Min Temperature 75 °F - - ()
Cooling Degree Days 14    
Growing Degree Days 28 (Base 50)    
Moisture  
Dew Point 77 °F    
Average Humidity 96    
Maximum Humidity 100    
Minimum Humidity 81    
Precipitation  
Precipitation 0.79 in - - ()
Sea Level Pressure  
Sea Level Pressure 29.76 in    
Wind  
Wind Speed 1 mph ()    
Max Wind Speed 9 mph    
Max Gust Speed -    
Visibility 10.3 miles    
Events Rain    
T = Trace of Precipitation, MM = Missing Value Source: Averaged Metar Reports

Daily Weather History Graph

Daily Weather History Graph

Search for Another Location

Airport:

Trip Planner

Search our weather history database for the weather conditions in past years. The results will help you decide how hot, cold, wet, or windy it might be!

Date:

Astronomy

Jan. 07, 2013 Rise Set
Actual Time 6:37 AM FJST 7:46 PM FJST
Civil Twilight 6:13 AM FJST 8:10 PM FJST
Nautical Twilight 5:44 AM FJST 8:38 PM FJST
Astronomical Twilight 5:15 AM FJST 9:08 PM FJST
Moon 1:46 AM FJST (1/7) 2:55 PM FJST (1/7)
Length of Visible Light 13h 57m
Length of Day
13h 09m
Waning Crescent, 30% of the Moon is Illuminated
Jan 7
Waning Crescent
Jan 12
New
Jan 19
First Quarter
Jan 27
Full
Feb 4
Last Quarter

Hourly Weather History & Observations

Time (FJST) Temp. Heat Index Dew Point Humidity Pressure Visibility Wind Dir Wind Speed Gust Speed Precip Events Conditions
12:00 AM 77.0 °F - 77.0 °F 100% 29.80 in 9.3 mi Calm Calm - N/A Rain Light Rain Showers
1:00 AM 76 °F - 76 °F 100% 29.79 in 12 mi Calm Calm - - Rain Light Rain Showers
1:00 AM 77.0 °F - 77.0 °F 100% 29.77 in 18.6 mi Calm Calm - N/A Rain Light Rain Showers
2:00 AM 77.0 °F - 77.0 °F 100% 29.77 in 18.6 mi Calm Calm - N/A   Light Drizzle
3:00 AM 77.0 °F - 77.0 °F 100% 29.77 in 18.6 mi Calm Calm - N/A Rain Light Rain Showers
4:00 AM 76 °F - 76 °F 100% 29.75 in 12 mi Calm Calm - - Rain Light Rain Showers
4:00 AM 77.0 °F - 77.0 °F 100% 29.74 in 12.4 mi Calm Calm - N/A Rain Light Rain Showers
5:00 AM 77.0 °F - 77.0 °F 100% 29.74 in 18.6 mi Calm Calm - N/A   Mostly Cloudy
6:00 AM 75.2 °F - 75.2 °F 100% 29.74 in 24.9 mi Calm Calm - N/A   Mostly Cloudy
7:00 AM 75 °F - 75 °F 100% 29.77 in 12 mi Calm Calm - - Rain Light Rain Showers
7:00 AM 75.2 °F - 75.2 °F 100% 29.77 in 24.9 mi Calm Calm - N/A   Mostly Cloudy
8:00 AM 75.2 °F - 75.2 °F 100% 29.77 in 31.1 mi Calm Calm - N/A   Scattered Clouds
9:00 AM 82.4 °F 92.4 °F 78.8 °F 89% 29.77 in 31.1 mi Calm Calm - N/A   Mostly Cloudy
10:00 AM 82 °F - 77 °F 81% 29.79 in 12 mi SW 9.2 mph - -   Partly Cloudy
10:00 AM 82.4 °F 90.9 °F 77.0 °F 84% 29.77 in 24.9 mi SW 9.2 mph - N/A   Mostly Cloudy
11:00 AM 82.4 °F 90.9 °F 77.0 °F 84% 29.77 in 24.9 mi SSE 6.9 mph - N/A   Mostly Cloudy
12:00 PM 78.8 °F - 78.8 °F 100% 29.77 in 12.4 mi SSE 5.8 mph - N/A Rain Light Rain Showers
1:00 PM 78 °F - 78 °F 99% 29.76 in 2 mi SSE 8.1 mph - - Rain Heavy Rain Showers
4:00 PM 79 °F - 77 °F 91% 29.72 in 6 mi SSE 5.8 mph - - Rain Light Rain Showers
4:00 PM 78.8 °F - 77.0 °F 94% 29.71 in 6.2 mi SSE 5.8 mph - N/A Rain Light Rain Showers
5:00 PM 78.8 °F - 75.2 °F 89% 29.68 in 6.2 mi SE 5.8 mph - N/A Rain Light Rain Showers
7:00 PM 77 °F - 76 °F 94% 29.73 in 1 mi Calm Calm - - Rain Light Rain Showers
10:00 PM 77 °F - 77 °F 98% 29.79 in 6 mi Calm Calm - - Rain Light Rain Showers
10:00 PM 77.0 °F - 77.0 °F 100% 29.77 in 6.2 mi Calm Calm - N/A Rain Light Rain Showers
11:00 PM 77.0 °F - 77.0 °F 100% 29.77 in 6.2 mi South 5.8 mph - N/A Rain Light Rain